[[{"header":{"parameterUnit":"m.s-1","parameterCategory":2,"la1":30.2991,"la2":30.254,"lo1":-89.0895,"lo2":-89.0444,"dy":0.0017,"dx":0.0017,"nx":28,"ny":28,"refTime":"2025-07-29T09:00:00:Z","depth":"0","parameterNumber":2,"parameterNumberName":"U-component_of_CURRENTS"},"data":[0,0,0,0,0,0,0,0,0,0,0,0,0,0,0,0,0,0,0,0,0,0,0,0,0,0,0,0,0,0,0,0,0,0,0,0,0,0,0,0,0,0,0,0,0,0,0,0,0,0,0,0,0,0,0,0,0,0,0.1683,0.1683,0,0.1748,0.1749,0.175,0.1832,0.1833,0.1835,0.1836,0.1952,0.1954,0.1955,0,0,0,0,0,0,0,0,0,0,0,0,0,0.1618,0.1619,0.1682,0.1683,0.1684,0.1748,0.1749,0.175,0.1832,0.1833,0.1835,0.1837,0.1951,0.1953,0.1956,0,0,0,0,0,0,0,0,0,0,0,0,0,0.166,0.1619,0.1682,0.1733,0.1739,0.1748,0.1749,0.175,0.1831,0.1833,0.1836,0.1837,0.1951,0.1953,0.1956,0.1931,0,0,0.1964,0.1965,0,0,0,0,0,0,0,0,0.1658,0.1662,0.1725,0.173,0.1736,0.1785,0.1769,0.1813,0.1831,0.1795,0.1836,0.1839,0.19,0.1907,0.1912,0.1936,0.1941,0.1964,0.1966,0.1967,0.1968,0,0,0,0,0,0,0,0.1655,0.166,0.1708,0.1726,0.1732,0.175,0.1758,0.1777,0.1835,0.1799,0.1805,0.1813,0.1903,0.191,0.1916,0.1943,0.1964,0.1967,0.1968,0.1969,0.2019,0.2019,0,0,0,0,0,0,0.1646,0.1657,0.1706,0.171,0.1702,0.1749,0.1759,0.1766,0.1834,0.1846,0.1811,0.1816,0.1904,0.1913,0.192,0.1983,0.1967,0.197,0.1971,0.2019,0.2019,0.2019,0,0,0,0,0,0,0.1645,0.165,0.1703,0.1686,0.1694,0.1748,0.1756,0.1767,0.1785,0.1843,0.1857,0.182,0.1906,0.1917,0.1953,0.1985,0.1971,0.1973,0.202,0.2019,0.2019,0.2051,0,0,0,0,0,0,0.1642,0.1649,0.1649,0.1685,0.1695,0.1735,0.1755,0.1766,0.1786,0.1794,0.1855,0.1868,0.1908,0.1949,0.1956,0.1988,0.1975,0.202,0.2019,0.2019,0.205,0.2052,0.2053,0,0,0,0,0,0.164,0.1662,0.1648,0.1654,0.1694,0.1736,0.1743,0.1787,0.1785,0.1807,0.1836,0.1866,0.195,0.195,0.1959,0.1993,0.202,0.202,0.2019,0.205,0.2051,0.2053,0,0,0,0,0,0,0.1654,0.1673,0.1659,0.1688,0.1709,0.1751,0.1779,0.1779,0.1813,0.1823,0.186,0.1876,0.1919,0.1934,0.1933,0.2,0.199,0.1991,0.2011,0.2013,0.2014,0.2104,0.1978,0,0,0,0,0,0.1643,0.1664,0.1674,0.1703,0.1708,0.1726,0.1744,0.1766,0.18,0.1818,0.1849,0.1881,0.1917,0.1948,0.1976,0.2009,0.2085,0.2033,0.2034,0.2036,0.2111,0.2225,0.2247,0.2016,0.2017,0.2017,0,0,0.1669,0.1673,0.1692,0.1705,0.1724,0.1754,0.1745,0.1783,0.1821,0.1822,0.1879,0.1883,0.192,0.197,0.1991,0.1995,0.213,0.2035,0.2036,0.2113,0.2228,0.2251,0.2272,0.2016,0.2016,0.2016,0,0,0.1733,0.1717,0.1752,0.1762,0.1778,0.1784,0.1788,0.1812,0.1839,0.1872,0.1883,0.1921,0.1953,0.2011,0.2038,0.206,0.2124,0.2034,0.2135,0.2243,0.2265,0.2286,0.2381,0.241,0.2046,0.2046,0.2047,0,0.1762,0.1792,0.1773,0.1801,0.1825,0.1796,0.1842,0.1857,0.1891,0.193,0.1906,0.1992,0.1999,0.2105,0.2109,0.2076,0.2137,0.2127,0.2252,0.2274,0.2295,0.2388,0.242,0.2048,0.2048,0.2048,0.2047,0,0.1843,0.1864,0.1891,0.1907,0.1924,0.1964,0.1967,0.1984,0.1983,0.2014,0.2097,0.211,0.2186,0.2159,0.2148,0.2281,0.2274,0.2233,0.2263,0.2322,0.2413,0.2446,0.205,0.205,0.2049,0.2049,0,0,0.1921,0.1946,0.1952,0.197,0.1983,0.2006,0.2057,0.2113,0.217,0.2194,0.2305,0.2337,0.2349,0.2382,0.236,0.2444,0.2597,0.2406,0.2411,0.2529,0.2843,0.2811,0.2843,0.2574,0.258,0.2586,0.2838,0,0.1993,0.2054,0.2055,0.2123,0.2151,0.2146,0.2197,0.224,0.2276,0.2363,0.2413,0.2493,0.2431,0.2463,0.2546,0.2588,0.2691,0.2535,0.2748,0.2756,0.2744,0.2883,0.2746,0.2959,0.287,0.2876,0.288,0,0.2065,0.2089,0.2165,0.2214,0.223,0.2265,0.234,0.2388,0.2493,0.2531,0.264,0.2672,0.2815,0.2725,0.2933,0.2834,0.287,0.2895,0.2904,0.2911,0.2788,0.2889,0.3022,0.2906,0.2931,0.2927,0.2923,0,0.2102,0.2169,0.2226,0.2244,0.2292,0.2336,0.2366,0.2449,0.2508,0.2657,0.2731,0.2892,0.2979,0.3085,0.3145,0.3055,0.3368,0.324,0.3263,0.3259,0.3213,0.3195,0.3298,0.3425,0.3425,0.3424,0.3423,0,0.2169,0.2217,0.2244,0.2273,0.2343,0.237,0.2469,0.2518,0.263,0.2721,0.2826,0.294,0.3074,0.3238,0.3268,0.341,0.3485,0.3366,0.3358,0.3209,0.3189,0.314,0.3074,0.3433,0.3431,0.3429,0.3428,0,0.2207,0.2234,0.229,0.234,0.236,0.2406,0.2493,0.2563,0.2664,0.2796,0.2855,0.3041,0.3261,0.3405,0.3597,0.3568,0.3602,0.3709,0.3527,0.3494,0.3342,0.3282,0.3365,0.3288,0.3785,0.3786,0.3787,0,0.2243,0.227,0.2312,0.2343,0.2371,0.2438,0.2483,0.2567,0.2634,0.2837,0.2903,0.3169,0.3292,0.3611,0.3698,0.3847,0.37,0.3759,0.3559,0.3405,0.3333,0.3173,0.3089,0.3497,0.3495,0.3494,0.3493,0,0.2303,0.2303,0.2343,0.2375,0.2422,0.2458,0.2525,0.2566,0.2671,0.2778,0.2921,0.304,0.3354,0.3468,0.3696,0.374,0.3573,0.3735,0.364,0.3218,0.2995,0.2889,0.3245,0.3483,0.3484,0.3485,0.3485,0.3486,0.2353,0.2376,0.2403,0.243,0.2455,0.2447,0.2448,0.2516,0.2584,0.2681,0.2845,0.2953,0.3176,0.3472,0.3539,0.3549,0.3512,0.3403,0.3379,0.3259,0.3085,0.3427,0.3597,0.3598,0.36,0.3601,0.3602,0,0.2414,0.2431,0.2458,0.2463,0.242,0.2434,0.245,0.2422,0.244,0.2563,0.2655,0.2801,0.2947,0.3135,0.3268,0.3176,0.3031,0.3112,0.2845,0.2805,0.3183,0.3065,0.3047,0.3047,0.3048,0.3048,0.3048,0.3048,0.2475,0.2503,0.2486,0.2418,0.2379,0.23,0.2264,0.2238,0.2278,0.2305,0.2353,0.2467,0.2713,0.292,0.292,0.2875,0.2671,0.2586,0.2597,0.282,0.2842,0.2863,0.2737,0.2651,0.265,0.2085,0.2081,0.2077]},{"header":{"parameterUnit":"m.s-1","parameterCategory":2,"la1":30.2991,"la2":30.254,"lo1":-89.0895,"lo2":-89.0444,"dy":0.0017,"dx":0.0017,"nx":28,"ny":28,"refTime":"2025-07-29T09:00:00:Z","depth":"0","parameterNumber":3,"parameterNumberName":"V-component_of_CURRENTS"},"data":[0,0,0,0,0,0,0,0,0,0,0,0,0,0,0,0,0,0,0,0,0,0,0,0,0,0,0,0,0,0,0,0,0,0,0,0,0,0,0,0,0,0,0,0,0,0,0,0,0,0,0,0,0,0,0,0,0,0,0.0456,0.0455,0,0.0356,0.0355,0.0354,0.0348,0.0349,0.0349,0.035,0.029,0.0288,0.0285,0,0,0,0,0,0,0,0,0,0,0,0,0,0.0631,0.0628,0.0456,0.0455,0.0453,0.0356,0.0355,0.0354,0.0348,0.0349,0.035,0.0351,0.0291,0.0288,0.0285,0,0,0,0,0,0,0,0,0,0,0,0,0,0.0549,0.0627,0.0457,0.0435,0.0432,0.0356,0.0355,0.0354,0.0348,0.0349,0.035,0.0351,0.0292,0.0288,0.0285,0.024,0,0,0.0274,0.0273,0,0,0,0,0,0,0,0,0.0553,0.0543,0.044,0.0437,0.0433,0.0362,0.0394,0.0316,0.0347,0.0384,0.035,0.0352,0.0315,0.0309,0.0293,0.0237,0.0234,0.0274,0.0272,0.027,0.0269,0,0,0,0,0,0,0,0.0559,0.0547,0.042,0.0438,0.0434,0.0427,0.0417,0.038,0.0347,0.0381,0.0379,0.0361,0.0314,0.0296,0.0291,0.0233,0.0274,0.0271,0.0269,0.0267,0.0198,0.0198,0,0,0,0,0,0,0.0562,0.0552,0.0424,0.0417,0.0493,0.0422,0.0412,0.0387,0.0347,0.034,0.036,0.0361,0.0301,0.0295,0.0289,0.0303,0.027,0.0267,0.0265,0.0198,0.0198,0.0198,0,0,0,0,0,0,0.0567,0.0552,0.0428,0.048,0.0463,0.0418,0.039,0.0384,0.0367,0.033,0.0326,0.035,0.0302,0.0294,0.027,0.0298,0.0265,0.0262,0.0198,0.0198,0.0198,0.0285,0,0,0,0,0,0,0.0572,0.0554,0.0545,0.048,0.046,0.0395,0.0389,0.0381,0.0353,0.0353,0.0319,0.0315,0.0302,0.0276,0.0267,0.0292,0.0259,0.0197,0.0198,0.0198,0.0282,0.0288,0.0294,0,0,0,0,0,0.0578,0.0555,0.0545,0.0529,0.0446,0.0394,0.0384,0.0359,0.0351,0.0348,0.0329,0.0316,0.0273,0.0272,0.0262,0.0288,0.0197,0.0198,0.0198,0.0279,0.0287,0.0294,0,0,0,0,0,0,0.0629,0.0549,0.0537,0.0492,0.0454,0.0392,0.0376,0.0355,0.0333,0.0336,0.0308,0.0302,0.0295,0.0267,0.0267,0.0268,0.0237,0.0235,0.0302,0.0309,0.0315,0.0368,0.0257,0,0,0,0,0,0.0633,0.0597,0.053,0.0501,0.0476,0.0426,0.0402,0.0384,0.0349,0.034,0.0318,0.0297,0.0285,0.0279,0.0257,0.0245,0.0236,0.0256,0.0262,0.0268,0.0303,0.0309,0.032,0.02,0.02,0.02,0,0,0.0648,0.0597,0.0581,0.051,0.0475,0.0456,0.0416,0.0379,0.0388,0.0335,0.034,0.031,0.0284,0.0286,0.0281,0.027,0.029,0.0268,0.0274,0.0307,0.0311,0.0323,0.0334,0.0201,0.0201,0.0201,0,0,0.0653,0.061,0.0582,0.0552,0.0494,0.0472,0.0462,0.0404,0.0405,0.039,0.0369,0.0362,0.0321,0.033,0.0325,0.0344,0.0317,0.0324,0.0406,0.0411,0.0422,0.0431,0.0412,0.042,0.0334,0.0334,0.0334,0,0.0678,0.0628,0.0571,0.0542,0.0531,0.0484,0.0476,0.0466,0.042,0.044,0.0407,0.0394,0.0357,0.0396,0.0405,0.0364,0.035,0.0384,0.0423,0.0432,0.044,0.0419,0.0426,0.0338,0.0338,0.0337,0.0337,0,0.0658,0.0633,0.0613,0.0573,0.0562,0.0541,0.0522,0.0529,0.0519,0.052,0.0543,0.0498,0.0506,0.0481,0.0448,0.0495,0.0458,0.0426,0.0413,0.0458,0.0431,0.0437,0.0344,0.0343,0.0342,0.0341,0,0,0.0688,0.0613,0.0613,0.0609,0.0577,0.0566,0.0601,0.0623,0.0671,0.0643,0.0708,0.0674,0.0663,0.0656,0.0613,0.0611,0.0632,0.0551,0.0549,0.0549,0.0629,0.0621,0.0625,0.0606,0.0608,0.061,0.0578,0,0.0696,0.065,0.0628,0.064,0.062,0.0627,0.0673,0.0703,0.0728,0.0783,0.0775,0.0802,0.0728,0.0732,0.0727,0.0666,0.0655,0.0643,0.0572,0.057,0.0572,0.0636,0.0578,0.0549,0.0584,0.0585,0.0585,0,0.0691,0.0661,0.0646,0.0672,0.0672,0.0695,0.078,0.0814,0.0897,0.0921,0.0968,0.0961,0.0984,0.0895,0.0851,0.0845,0.0754,0.0689,0.0686,0.0665,0.0575,0.0512,0.0557,0.0386,0.0594,0.0593,0.0593,0,0.0711,0.0695,0.0687,0.0684,0.0697,0.0736,0.0775,0.0858,0.0922,0.1017,0.1077,0.1102,0.1116,0.1041,0.093,0.0889,0.0867,0.0787,0.0692,0.0688,0.0623,0.0612,0.0519,0.0751,0.0751,0.0751,0.0751,0,0.0711,0.0717,0.0695,0.0682,0.0747,0.0756,0.0858,0.0912,0.1015,0.112,0.1146,0.1227,0.1153,0.1137,0.1003,0.0896,0.0926,0.074,0.0701,0.0647,0.0639,0.0473,0.0392,0.075,0.075,0.075,0.0751,0,0.0718,0.0689,0.0695,0.0713,0.0738,0.0787,0.09,0.0988,0.1066,0.1207,0.1245,0.1331,0.1324,0.1236,0.1123,0.0994,0.079,0.0817,0.0757,0.0713,0.0462,0.0389,0.0321,0.0272,0.0714,0.0714,0.0714,0,0.0704,0.0694,0.0717,0.076,0.0769,0.0846,0.0925,0.1008,0.1105,0.1271,0.1348,0.1406,0.1463,0.1329,0.1131,0.0942,0.0789,0.0743,0.066,0.048,0.0368,0.0327,0.0288,0.0581,0.058,0.0579,0.0578,0,0.0711,0.0717,0.0734,0.08,0.0871,0.0958,0.1062,0.1138,0.1261,0.1377,0.1521,0.1578,0.1483,0.1322,0.1093,0.093,0.0636,0.0717,0.0547,0.0297,0.0232,0.0155,0.0549,0.057,0.0571,0.0571,0.0572,0.0572,0.0745,0.0776,0.0804,0.088,0.0964,0.1064,0.1144,0.1268,0.141,0.1592,0.1627,0.172,0.1455,0.1156,0.0954,0.0524,0.0561,0.034,0.0275,0.0257,0.0199,0.0587,0.056,0.056,0.0561,0.0562,0.0562,0,0.0777,0.082,0.0896,0.0978,0.1062,0.1093,0.1244,0.1337,0.1499,0.166,0.1775,0.1668,0.1312,0.0967,0.0414,0.0117,0.0019,-0.005,-0.016,-0.0171,0.0167,0.0147,0.0012,0.0012,0.0013,0.0013,0.0013,0.0013,0.0803,0.0866,0.09,0.1036,0.11,0.122,0.1296,0.1453,0.1585,0.177,0.1823,0.1854,0.1558,0.0511,-0.016,-0.0305,-0.0493,-0.0543,-0.0585,-0.0429,-0.04,-0.0371,-0.041,-0.066,-0.0661,-0.0918,-0.0921,-0.0924]}],[{"header":{"parameterUnit":"m.s-1","parameterCategory":2,"la1":30.2991,"la2":30.254,"lo1":-89.0895,"lo2":-89.0444,"dy":0.0017,"dx":0.0017,"nx":28,"ny":28,"refTime":"2025-07-29T09:00:00:Z","depth":"2","parameterNumber":2,"parameterNumberName":"U-component_of_CURRENTS"},"data":[0,0,0,0,0,0,0,0,0,0,0,0,0,0,0,0,0,0,0,0,0,0,0,0,0,0,0,0,0,0,0,0,0,0,0,0,0,0,0,0,0,0,0,0,0,0,0,0,0,0,0,0,0,0,0,0,0,0,0.1174,0.1171,0,0.1126,0.1127,0.1129,0.1289,0.1291,0.1294,0.1296,0.1327,0.1326,0.1324,0,0,0,0,0,0,0,0,0,0,0,0,0,0.1238,0.1239,0.1174,0.1171,0.1168,0.1126,0.1127,0.1129,0.1288,0.1291,0.1294,0.1297,0.1328,0.1326,0.1324,0,0,0,0,0,0,0,0,0,0,0,0,0,0.1226,0.124,0.1174,0.1224,0.1226,0.1125,0.1127,0.113,0.1288,0.1291,0.1295,0.1299,0.1328,0.1326,0.1324,0.1233,0,0,0.1317,0.1316,0,0,0,0,0,0,0,0,0.1227,0.1227,0.122,0.122,0.1222,0.1195,0.116,0.1159,0.1287,0.1291,0.1296,0.1301,0.1271,0.1274,0.1291,0.1235,0.1236,0.1316,0.1315,0.1314,0.1313,0,0,0,0,0,0,0,0.1228,0.1229,0.1181,0.1215,0.1217,0.1189,0.1197,0.1161,0.1281,0.1291,0.1296,0.1249,0.1277,0.1293,0.1292,0.1237,0.1316,0.1314,0.1313,0.1312,0.121,0.1209,0,0,0,0,0,0,0.1188,0.123,0.1181,0.1176,0.1206,0.1184,0.1193,0.1221,0.128,0.1285,0.1246,0.1256,0.1295,0.1295,0.1294,0.1357,0.1314,0.1312,0.1311,0.1212,0.121,0.1209,0,0,0,0,0,0,0.1191,0.1187,0.1183,0.1178,0.1172,0.1178,0.1208,0.1217,0.1247,0.124,0.1253,0.1265,0.1298,0.1297,0.126,0.1353,0.1311,0.1309,0.1213,0.1211,0.1209,0.1374,0,0,0,0,0,0,0.1195,0.1191,0.1196,0.1177,0.117,0.113,0.1201,0.1212,0.1199,0.1214,0.1258,0.1266,0.1301,0.1262,0.1257,0.1349,0.1307,0.1215,0.1212,0.121,0.1371,0.1378,0.1385,0,0,0,0,0,0.1199,0.1207,0.1199,0.1189,0.1181,0.1125,0.1123,0.1153,0.1195,0.1201,0.122,0.1266,0.1246,0.1257,0.1252,0.1346,0.1216,0.1213,0.121,0.1367,0.1377,0.1385,0,0,0,0,0,0,0.1246,0.1219,0.1213,0.1216,0.116,0.1143,0.1145,0.1139,0.116,0.1192,0.1217,0.1222,0.1257,0.1214,0.1227,0.1296,0.1249,0.1245,0.1371,0.1379,0.1386,0.1475,0.1305,0,0,0,0,0,0.1241,0.1256,0.1192,0.1191,0.1174,0.1152,0.1131,0.1137,0.1131,0.1151,0.1195,0.1214,0.1231,0.1232,0.1247,0.1229,0.1242,0.1285,0.1293,0.13,0.1358,0.1396,0.1416,0.1199,0.1199,0.1199,0,0,0.1248,0.1235,0.1239,0.1198,0.1188,0.1199,0.1163,0.1136,0.1181,0.1139,0.1256,0.1246,0.1227,0.1275,0.1284,0.1254,0.1359,0.1296,0.1304,0.136,0.1396,0.1419,0.1439,0.1197,0.1197,0.1198,0,0,0.1265,0.1274,0.1283,0.1268,0.1209,0.121,0.1194,0.1188,0.1233,0.1252,0.1276,0.1314,0.1312,0.1369,0.1376,0.1398,0.1408,0.137,0.148,0.1515,0.1537,0.1556,0.1592,0.1613,0.1361,0.1361,0.1362,0,0.1285,0.1287,0.1263,0.1282,0.1278,0.1229,0.1242,0.1278,0.1271,0.1276,0.1317,0.136,0.1403,0.1432,0.1504,0.1444,0.1424,0.1468,0.1537,0.1556,0.1573,0.1605,0.1627,0.1369,0.1368,0.1367,0.1367,0,0.1302,0.1317,0.1329,0.1371,0.1369,0.136,0.1378,0.1406,0.1449,0.1459,0.1502,0.1541,0.1571,0.159,0.1594,0.1696,0.1631,0.1564,0.1545,0.1607,0.1634,0.1653,0.138,0.1377,0.1375,0.1373,0,0,0.1323,0.1339,0.1343,0.1352,0.141,0.139,0.1495,0.1498,0.1529,0.1589,0.1635,0.1755,0.1754,0.1763,0.1743,0.1805,0.1976,0.1756,0.1754,0.1848,0.2036,0.1827,0.1828,0.1891,0.1895,0.1899,0.2008,0,0.1337,0.1347,0.1385,0.1433,0.1434,0.1479,0.1563,0.1581,0.1626,0.1677,0.1709,0.1775,0.1814,0.184,0.192,0.1962,0.2032,0.1954,0.1915,0.1916,0.1769,0.1846,0.1709,0.1778,0.2026,0.203,0.2032,0,0.1335,0.133,0.1363,0.1404,0.1418,0.1492,0.1558,0.1629,0.1692,0.1733,0.1792,0.18,0.1956,0.1959,0.2123,0.2047,0.2101,0.2119,0.212,0.1897,0.1744,0.175,0.1804,0.2064,0.2061,0.2059,0.2057,0,0.1272,0.1316,0.1328,0.1359,0.1427,0.1483,0.1555,0.1635,0.1692,0.1795,0.1829,0.1922,0.2009,0.2099,0.2206,0.2177,0.2322,0.2268,0.2111,0.2095,0.1966,0.1929,0.2387,0.2386,0.2386,0.2386,0.2386,0,0.1219,0.1253,0.1304,0.1316,0.1345,0.1452,0.1521,0.1602,0.1728,0.1773,0.1877,0.1894,0.2053,0.2115,0.2212,0.2226,0.234,0.2182,0.2122,0.2006,0.1974,0.2199,0.2175,0.239,0.2389,0.2388,0.2388,0,0.1148,0.118,0.1211,0.1282,0.1321,0.1359,0.1525,0.1549,0.1718,0.1797,0.1851,0.1942,0.1979,0.2052,0.2181,0.2212,0.2258,0.2213,0.2064,0.1983,0.2017,0.2,0.2099,0.2093,0.2088,0.2083,0.208,0,0.1113,0.1128,0.1186,0.1181,0.1234,0.1314,0.1351,0.1534,0.1578,0.1777,0.1774,0.1839,0.1822,0.1902,0.188,0.1933,0.2043,0.1886,0.1826,0.2063,0.1995,0.1986,0.1977,0.174,0.1734,0.1729,0.1725,0,0.1092,0.1143,0.1094,0.1143,0.1174,0.1167,0.1263,0.1295,0.1493,0.1571,0.1657,0.1697,0.1653,0.1601,0.1609,0.1613,0.1871,0.1773,0.2103,0.1779,0.1717,0.1651,0.1656,0.168,0.1685,0.1688,0.169,0.1692,0.1042,0.1005,0.1036,0.1084,0.1104,0.1105,0.1105,0.1174,0.1265,0.1403,0.1439,0.1512,0.1473,0.1355,0.1337,0.134,0.1408,0.1497,0.1518,0.1543,0.1427,0.1352,0.1229,0.1231,0.1233,0.1234,0.1235,0,0.0942,0.098,0.1021,0.1016,0.1058,0.112,0.1108,0.1083,0.1155,0.1235,0.1309,0.119,0.1151,0.1172,0.11,0.1089,0.113,0.1094,0.1203,0.1242,0.1278,0.1156,0.0884,0.0884,0.0884,0.0884,0,0,0.0858,0.0807,0.0895,0.1028,0.1083,0.1126,0.1097,0.1036,0.1087,0.1055,0.1132,0.1128,0.1196,0.1059,0.097,0.0985,0.1127,0.0935,0.1202,0.1371,0.141,0.1469,0.1315,0,0,0,0,0]},{"header":{"parameterUnit":"m.s-1","parameterCategory":2,"la1":30.2991,"la2":30.254,"lo1":-89.0895,"lo2":-89.0444,"dy":0.0017,"dx":0.0017,"nx":28,"ny":28,"refTime":"2025-07-29T09:00:00:Z","depth":"2","parameterNumber":3,"parameterNumberName":"V-component_of_CURRENTS"},"data":[0,0,0,0,0,0,0,0,0,0,0,0,0,0,0,0,0,0,0,0,0,0,0,0,0,0,0,0,0,0,0,0,0,0,0,0,0,0,0,0,0,0,0,0,0,0,0,0,0,0,0,0,0,0,0,0,0,0,0.0113,0.011,0,-0.0014,-0.0014,-0.0014,-0.0002,-0.0001,-0.0001,0.0,-0.0088,-0.0091,-0.0094,0,0,0,0,0,0,0,0,0,0,0,0,0,0.0319,0.0317,0.0113,0.011,0.0107,-0.0014,-0.0014,-0.0015,-0.0002,-0.0001,-0.0,0.0,-0.0087,-0.009,-0.0094,0,0,0,0,0,0,0,0,0,0,0,0,0,0.0228,0.0316,0.0114,0.0089,0.0085,-0.0014,-0.0014,-0.0015,-0.0002,-0.0001,-0.0,0.0001,-0.0086,-0.009,-0.0095,-0.0145,0,0,-0.0108,-0.011,0,0,0,0,0,0,0,0,0.0233,0.0222,0.0096,0.0091,0.0085,-0.0003,0.0025,-0.0061,-0.0003,0.0045,0.0,0.0001,-0.0065,-0.0071,-0.0079,-0.0149,-0.0153,-0.0109,-0.0112,-0.0114,-0.0115,0,0,0,0,0,0,0,0.0239,0.0227,0.0076,0.0092,0.0086,0.0067,0.0058,0.001,-0.0004,0.0041,0.0038,0.0002,-0.0066,-0.0075,-0.0082,-0.0155,-0.0109,-0.0113,-0.0116,-0.0117,-0.0218,-0.0218,0,0,0,0,0,0,0.0229,0.0233,0.008,0.0071,0.0148,0.0062,0.0052,0.0035,-0.0004,-0.0014,0.0001,0.0003,-0.0068,-0.0076,-0.0085,-0.0086,-0.0114,-0.0118,-0.012,-0.0218,-0.0218,-0.0218,0,0,0,0,0,0,0.0234,0.0217,0.0085,0.0138,0.0118,0.0057,0.0038,0.0032,0.0027,-0.0037,-0.0042,0.0002,-0.0067,-0.0078,-0.0147,-0.0092,-0.012,-0.0124,-0.0218,-0.0218,-0.0218,-0.0129,0,0,0,0,0,0,0.0241,0.0221,0.0217,0.0137,0.0114,0.0023,0.0035,0.0028,-0.0004,-0.0002,-0.004,-0.0046,-0.0067,-0.0141,-0.0152,-0.0098,-0.0128,-0.0218,-0.0218,-0.0218,-0.0132,-0.0126,-0.012,0,0,0,0,0,0.0249,0.0225,0.0218,0.0199,0.0108,0.002,0.0008,-0.0023,-0.0005,-0.0017,-0.0054,-0.0045,-0.0145,-0.0147,-0.0159,-0.0105,-0.0218,-0.0218,-0.0218,-0.0134,-0.0127,-0.012,0,0,0,0,0,0,0.0303,0.022,0.0212,0.0163,0.0096,0.0017,-0.0003,-0.0023,-0.0057,-0.0053,-0.0081,-0.0093,-0.0109,-0.0148,-0.0148,-0.0135,-0.0165,-0.0168,-0.0097,-0.0091,-0.0085,-0.0035,-0.0131,0,0,0,0,0,0.0312,0.0283,0.0193,0.0155,0.0128,0.007,0.0036,0.0004,-0.0051,-0.0062,-0.0073,-0.0097,-0.012,-0.0142,-0.0165,-0.0198,-0.0221,-0.0162,-0.0156,-0.0151,-0.0121,-0.0166,-0.016,-0.0217,-0.0217,-0.0217,0,0,0.0315,0.0267,0.0248,0.0165,0.0125,0.01,0.0057,-0.0007,-0.0004,-0.0071,-0.0046,-0.008,-0.0126,-0.0134,-0.0143,-0.0162,-0.0145,-0.0151,-0.0146,-0.0118,-0.0165,-0.0159,-0.0154,-0.0217,-0.0217,-0.0217,0,0,0.029,0.0275,0.0237,0.0204,0.0122,0.0102,0.0086,0.0023,0.0025,-0.0001,-0.0021,-0.0036,-0.0072,-0.0081,-0.0096,-0.0084,-0.0107,-0.0085,-0.0023,-0.0068,-0.0063,-0.0059,-0.0066,-0.0063,-0.009,-0.009,-0.009,0,0.0309,0.0248,0.0209,0.0179,0.0161,0.0117,0.009,0.0087,0.002,0.0,0.0023,-0.0036,-0.0025,-0.0076,-0.0017,-0.0059,-0.0096,-0.0042,-0.0057,-0.0054,-0.0051,-0.006,-0.0058,-0.0086,-0.0086,-0.0087,-0.0087,0,0.0257,0.0227,0.0206,0.0186,0.017,0.0127,0.0116,0.0115,0.0132,0.0108,0.007,0.0048,0.0015,0.0034,0.0042,0.0052,0.0018,-0.0037,-0.0067,-0.004,-0.0051,-0.0051,-0.0079,-0.0081,-0.0082,-0.0083,0,0,0.0263,0.0184,0.0184,0.0164,0.0168,0.0132,0.0173,0.0141,0.0141,0.0124,0.0103,0.0134,0.0108,0.0093,0.0064,0.0067,0.0126,0.0055,0.0051,0.0065,0.0041,-0.0006,-0.001,0.0044,0.0045,0.0045,0.0031,0,0.0238,0.0166,0.016,0.0142,0.011,0.0131,0.0174,0.0158,0.0164,0.0152,0.0106,0.0101,0.0125,0.0121,0.0124,0.0137,0.0127,0.0137,-0.0001,-0.0003,-0.0036,-0.0011,-0.0053,-0.0073,0.0031,0.0031,0.0031,0,0.0196,0.0152,0.0111,0.0088,0.0085,0.0108,0.0138,0.0165,0.0154,0.0166,0.0121,0.0081,0.0114,0.0121,0.0121,0.0115,0.0115,0.0104,0.01,0.0032,-0.0049,-0.0089,-0.0077,0.0031,0.0031,0.0031,0.0031,0,0.0175,0.0121,0.0086,0.0088,0.0081,0.0092,0.0126,0.0151,0.0197,0.0179,0.0205,0.0128,0.0154,0.0113,0.0152,0.0141,0.0125,0.008,-0.0,-0.0004,-0.0072,-0.0083,0.0047,0.0047,0.0047,0.0047,0.0047,0,0.0127,0.0103,0.0069,0.0051,0.0054,0.0078,0.0107,0.0142,0.0204,0.0265,0.0219,0.0226,0.0165,0.0131,0.013,0.009,0.0096,0.0038,-0.0011,-0.0043,-0.005,0.0006,0.0001,0.0046,0.0046,0.0046,0.0047,0,0.0094,0.0059,0.0036,0.0028,0.0035,0.0058,0.0151,0.0182,0.0264,0.035,0.037,0.0344,0.0294,0.0183,0.0128,0.009,0.0035,-0.0008,-0.0015,-0.0064,-0.0056,-0.0056,-0.008,-0.0081,-0.0083,-0.0084,-0.0085,0,0.0059,0.0043,0.0048,0.0063,0.0063,0.0098,0.0144,0.0223,0.0294,0.0425,0.047,0.0413,0.0372,0.023,0.0075,-0.0046,-0.0035,-0.0126,-0.0146,-0.0024,-0.0069,-0.0067,-0.0065,-0.0193,-0.0195,-0.0197,-0.0198,0,0.0042,0.007,0.0037,0.0115,0.0145,0.0172,0.0247,0.0311,0.0444,0.0531,0.0635,0.0609,0.0394,0.0198,-0.002,-0.0095,-0.0108,-0.0161,-0.0055,-0.0161,-0.0135,-0.0179,-0.0172,-0.0212,-0.021,-0.0209,-0.0209,-0.0208,0.0042,0.0048,0.0088,0.0163,0.0219,0.0305,0.0358,0.0458,0.0596,0.0754,0.0697,0.0692,0.0378,0.0063,-0.0104,-0.0246,-0.0242,-0.0262,-0.0256,-0.0249,-0.0265,-0.0245,-0.0342,-0.0341,-0.0341,-0.034,-0.034,0,0.0043,0.0078,0.0161,0.0231,0.0358,0.0381,0.0487,0.0572,0.0747,0.0793,0.0851,0.0586,0.0321,0.0068,-0.0183,-0.0345,-0.0335,-0.0362,-0.0331,-0.032,-0.031,-0.0326,-0.042,-0.042,-0.042,-0.0419,0,0,0.0015,0.0066,0.0146,0.0373,0.0463,0.0627,0.0692,0.0818,0.0898,0.0925,0.09,0.069,0.0366,0.0151,-0.0142,-0.0239,-0.0203,-0.0249,-0.0184,-0.0107,-0.0091,-0.0275,-0.0293,0,0,0,0,0]}],[{"header":{"parameterUnit":"m.s-1","parameterCategory":2,"la1":30.2991,"la2":30.254,"lo1":-89.0895,"lo2":-89.0444,"dy":0.0017,"dx":0.0017,"nx":28,"ny":28,"refTime":"2025-07-29T09:00:00:Z","depth":"4","parameterNumber":2,"parameterNumberName":"U-component_of_CURRENTS"},"data":[0,0,0,0,0,0,0,0,0,0,0,0,0,0,0,0,0,0,0,0,0,0,0,0,0,0,0,0,0,0,0,0,0,0,0,0,0,0,0,0,0,0,0,0,0,0,0,0,0,0,0,0,0,0,0,0,0,0,-0.0204,-0.0204,0,-0.0174,-0.0173,-0.0173,-0.0155,-0.0155,-0.0155,-0.0155,-0.0183,-0.0184,-0.0184,0,0,0,0,0,0,0,0,0,0,0,0,0,-0.0215,-0.0215,-0.0204,-0.0204,-0.0204,-0.0174,-0.0173,-0.0173,-0.0155,-0.0155,-0.0155,-0.0155,-0.0183,-0.0184,-0.0184,0,0,0,0,0,0,0,0,0,0,0,0,0,-0.0198,-0.0215,-0.0204,-0.0192,-0.0191,-0.0174,-0.0173,-0.0173,-0.0155,-0.0155,-0.0155,-0.0155,-0.0182,-0.0183,-0.0184,-0.0188,0,0,-0.0187,-0.0188,0,0,0,0,0,0,0,0,-0.0199,-0.0197,-0.0194,-0.0193,-0.0192,-0.017,-0.0187,-0.0181,-0.0155,-0.0166,-0.0155,-0.0155,-0.0185,-0.0186,-0.0176,-0.0189,-0.0191,-0.0188,-0.0188,-0.0189,-0.0189,0,0,0,0,0,0,0,-0.02,-0.0199,-0.019,-0.0194,-0.0193,-0.0178,-0.0176,-0.0186,-0.0175,-0.0165,-0.0165,-0.0164,-0.0185,-0.0175,-0.0177,-0.0191,-0.0188,-0.0188,-0.0189,-0.0189,-0.0229,-0.0229,0,0,0,0,0,0,-0.0209,-0.02,-0.0191,-0.019,-0.0198,-0.0178,-0.0176,-0.0175,-0.0174,-0.0174,-0.0164,-0.0164,-0.0174,-0.0176,-0.0178,-0.0208,-0.0189,-0.019,-0.019,-0.0228,-0.0229,-0.0229,0,0,0,0,0,0,-0.021,-0.0209,-0.0192,-0.0195,-0.0193,-0.0178,-0.0178,-0.0175,-0.0172,-0.0172,-0.0173,-0.0165,-0.0174,-0.0177,-0.019,-0.0208,-0.019,-0.0191,-0.0228,-0.0228,-0.0229,-0.0251,0,0,0,0,0,0,-0.021,-0.0209,-0.0219,-0.0196,-0.0193,-0.019,-0.0178,-0.0174,-0.0172,-0.0171,-0.0174,-0.0176,-0.0174,-0.0188,-0.0191,-0.0209,-0.0192,-0.0227,-0.0228,-0.0229,-0.025,-0.0252,-0.0255,0,0,0,0,0,-0.0211,-0.0222,-0.0219,-0.0219,-0.0204,-0.0191,-0.0188,-0.0176,-0.0172,-0.0173,-0.0173,-0.0176,-0.0196,-0.0189,-0.0192,-0.0211,-0.0227,-0.0228,-0.0229,-0.0249,-0.0252,-0.0255,0,0,0,0,0,0,-0.0232,-0.0221,-0.0217,-0.0225,-0.0213,-0.0189,-0.0196,-0.0181,-0.0179,-0.0183,-0.018,-0.0182,-0.02,-0.0201,-0.0194,-0.0224,-0.0213,-0.0215,-0.0227,-0.023,-0.0233,-0.0226,-0.0193,0,0,0,0,0,-0.0241,-0.0244,-0.023,-0.0235,-0.0238,-0.0217,-0.0214,-0.02,-0.0192,-0.0191,-0.0193,-0.0198,-0.0205,-0.0214,-0.0219,-0.0237,-0.0225,-0.0251,-0.0253,-0.0255,-0.0252,-0.0252,-0.0254,-0.0233,-0.0233,-0.0233,0,0,-0.0253,-0.0245,-0.0249,-0.024,-0.0235,-0.023,-0.0215,-0.0211,-0.0203,-0.0197,-0.0202,-0.0208,-0.021,-0.0226,-0.0235,-0.0232,-0.0254,-0.0257,-0.0258,-0.0253,-0.0254,-0.0256,-0.0257,-0.0233,-0.0233,-0.0233,0,0,-0.0264,-0.0272,-0.0276,-0.0269,-0.0259,-0.0247,-0.0248,-0.0232,-0.0227,-0.023,-0.0222,-0.0233,-0.0249,-0.0247,-0.025,-0.027,-0.0265,-0.0282,-0.0293,-0.0294,-0.0296,-0.0297,-0.0277,-0.0276,-0.0286,-0.0286,-0.0286,0,-0.0273,-0.0274,-0.0275,-0.0272,-0.0268,-0.0257,-0.0253,-0.0247,-0.0232,-0.0228,-0.0239,-0.0242,-0.0256,-0.0255,-0.0272,-0.0275,-0.027,-0.0282,-0.0297,-0.0298,-0.0299,-0.0278,-0.0277,-0.0287,-0.0287,-0.0287,-0.0287,0,-0.0283,-0.0283,-0.0288,-0.028,-0.028,-0.0274,-0.0267,-0.027,-0.027,-0.0253,-0.0257,-0.0266,-0.0261,-0.028,-0.029,-0.0303,-0.0294,-0.0298,-0.0289,-0.0302,-0.028,-0.0278,-0.0289,-0.0288,-0.0288,-0.0288,0,0,-0.0296,-0.0293,-0.0293,-0.0287,-0.028,-0.0276,-0.0281,-0.0269,-0.0267,-0.0265,-0.025,-0.0279,-0.0271,-0.0273,-0.028,-0.03,-0.0314,-0.0314,-0.0313,-0.0292,-0.0305,-0.0231,-0.0222,-0.0328,-0.0328,-0.0328,-0.0283,0,-0.0297,-0.0282,-0.0288,-0.0283,-0.0277,-0.028,-0.0281,-0.0272,-0.0274,-0.0262,-0.0255,-0.0248,-0.0268,-0.0271,-0.029,-0.0298,-0.0313,-0.0325,-0.0297,-0.0295,-0.0226,-0.0219,-0.0329,-0.0282,-0.0282,-0.0282,-0.0281,0,-0.0305,-0.0287,-0.0275,-0.027,-0.0273,-0.0273,-0.0277,-0.0276,-0.0261,-0.0258,-0.0242,-0.0229,-0.0221,-0.0254,-0.0258,-0.0266,-0.0293,-0.0311,-0.0309,-0.023,-0.0218,-0.0268,-0.0279,-0.0279,-0.0279,-0.0279,-0.0279,0,-0.0297,-0.0286,-0.0271,-0.0268,-0.026,-0.0266,-0.027,-0.0269,-0.0263,-0.0244,-0.0231,-0.0208,-0.0186,-0.0212,-0.0221,-0.0251,-0.0228,-0.0264,-0.0217,-0.0211,-0.0283,-0.0282,-0.0289,-0.0289,-0.0289,-0.0289,-0.029,0,-0.0291,-0.0287,-0.0265,-0.0256,-0.0246,-0.0255,-0.0254,-0.026,-0.0246,-0.0214,-0.0217,-0.0179,-0.0185,-0.0159,-0.0195,-0.0165,-0.0191,-0.0207,-0.0194,-0.0292,-0.0293,-0.0281,-0.0281,-0.0288,-0.0288,-0.0288,-0.0289,0,-0.0299,-0.0279,-0.0268,-0.025,-0.024,-0.0242,-0.0233,-0.0224,-0.0228,-0.0186,-0.017,-0.0138,-0.0096,-0.0089,-0.0104,-0.011,-0.011,-0.0107,-0.0175,-0.0169,-0.0107,-0.0109,-0.0053,-0.005,-0.0048,-0.0045,-0.0044,0,-0.0304,-0.0291,-0.026,-0.0239,-0.0234,-0.0224,-0.0201,-0.0203,-0.0184,-0.0151,-0.0112,-0.0064,-0.0036,0.0037,0.0008,0.0006,-0.0023,-0.0017,-0.0108,-0.0089,-0.0083,-0.0088,-0.0093,-0.004,-0.0039,-0.0038,-0.0038,0,-0.0317,-0.0307,-0.0292,-0.0238,-0.021,-0.0169,-0.014,-0.0115,-0.0099,-0.0108,-0.0025,0.0009,0.007,0.009,0.011,0.0083,-0.0012,0.0008,0.0,-0.0085,-0.0072,-0.007,-0.0077,-0.0029,-0.003,-0.0031,-0.0031,0,-0.0333,-0.0325,-0.0288,-0.0247,-0.0195,-0.0112,-0.0101,-0.0043,-0.0017,0.0015,0.0052,0.0088,0.0106,0.0132,0.0142,0.0153,0.0111,0.0074,0.0062,0.0052,0.0061,0.0092,0.0209,0,0,0,0,0,-0.0341,-0.0322,-0.0287,-0.0221,-0.0164,-0.0117,-0.0052,-0.0038,-0.0015,0.0061,0.0058,0.0118,0.016,0.0167,0.0192,0.0151,0.0094,0.0176,0.0041,0.0021,0.001,0.0009,0,0,0,0,0,0,-0.0338,-0.032,-0.0293,-0.0201,-0.0141,-0.0057,-0.0001,0.0025,0.0067,0.0081,0.0112,0.0107,0.0148,0.0149,0.0187,0.0186,0.0101,0.0184,0.0184,0.0026,0.0017,0.0009,0.0004,0,0,0,0,0]},{"header":{"parameterUnit":"m.s-1","parameterCategory":2,"la1":30.2991,"la2":30.254,"lo1":-89.0895,"lo2":-89.0444,"dy":0.0017,"dx":0.0017,"nx":28,"ny":28,"refTime":"2025-07-29T09:00:00:Z","depth":"4","parameterNumber":3,"parameterNumberName":"V-component_of_CURRENTS"},"data":[0,0,0,0,0,0,0,0,0,0,0,0,0,0,0,0,0,0,0,0,0,0,0,0,0,0,0,0,0,0,0,0,0,0,0,0,0,0,0,0,0,0,0,0,0,0,0,0,0,0,0,0,0,0,0,0,0,0,-0.0003,-0.0003,0,0.0026,0.0026,0.0027,0.0019,0.0018,0.0017,0.0016,-0.0021,-0.0021,-0.0021,0,0,0,0,0,0,0,0,0,0,0,0,0,-0.0079,-0.0077,-0.0003,-0.0003,-0.0003,0.0026,0.0026,0.0027,0.0019,0.0018,0.0017,0.0016,-0.0021,-0.0021,-0.0021,0,0,0,0,0,0,0,0,0,0,0,0,0,-0.0046,-0.0077,-0.0003,-0.0005,-0.0005,0.0026,0.0027,0.0027,0.0019,0.0018,0.0017,0.0016,-0.002,-0.0021,-0.0021,-0.0001,0,0,-0.0023,-0.0023,0,0,0,0,0,0,0,0,-0.0048,-0.0043,-0.0005,-0.0004,-0.0004,0.0016,-0.0014,0.0014,0.0019,0.0012,0.0016,0.0015,-0.0015,-0.0016,-0.0004,-0.0003,-0.0004,-0.0023,-0.0023,-0.0023,-0.0023,0,0,0,0,0,0,0,-0.005,-0.0044,0.001,-0.0004,-0.0004,-0.0012,-0.0008,-0.0008,0.0005,0.0012,0.0011,0.0012,-0.0015,-0.0004,-0.0006,-0.0005,-0.0023,-0.0023,-0.0023,-0.0023,-0.0067,-0.0068,0,0,0,0,0,0,-0.0055,-0.0046,0.0009,0.0011,-0.0031,-0.0009,-0.0005,0.0012,0.0006,0.0004,0.0013,0.0012,-0.0003,-0.0005,-0.0007,-0.0066,-0.0023,-0.0023,-0.0024,-0.0066,-0.0067,-0.0068,0,0,0,0,0,0,-0.0056,-0.0049,0.0008,-0.002,-0.0013,-0.0007,0.0012,0.0013,0.0017,0.0007,0.0004,0.0015,-0.0004,-0.0006,-0.0015,-0.0065,-0.0024,-0.0024,-0.0065,-0.0066,-0.0068,-0.0132,0,0,0,0,0,0,-0.0058,-0.0049,-0.0042,-0.0019,-0.0012,0.0015,0.0013,0.0014,0.0019,0.0017,0.0008,0.0004,-0.0005,-0.0014,-0.0015,-0.0065,-0.0024,-0.0064,-0.0066,-0.0067,-0.0128,-0.0135,-0.0141,0,0,0,0,0,-0.006,-0.0052,-0.0041,-0.0035,0.0,0.0014,0.0017,0.0019,0.002,0.0019,0.0015,0.0003,-0.0027,-0.0014,-0.0015,-0.0066,-0.0063,-0.0065,-0.0067,-0.0126,-0.0134,-0.0141,0,0,0,0,0,0,-0.0075,-0.0051,-0.004,-0.0021,-0.0008,0.0012,0.0008,0.002,0.002,0.0014,0.0009,0.0005,-0.0031,-0.0024,-0.001,-0.0083,-0.0054,-0.0056,-0.0098,-0.0105,-0.0112,-0.0127,-0.0025,0,0,0,0,0,-0.0073,-0.0063,-0.004,-0.0024,-0.0022,-0.0003,0.0003,0.0008,0.0013,0.0013,0.0006,-0.0009,-0.0036,-0.005,-0.0064,-0.0086,-0.0076,-0.0124,-0.013,-0.0135,-0.0148,-0.0153,-0.0161,-0.0075,-0.0075,-0.0075,0,0,-0.0071,-0.0059,-0.005,-0.0027,-0.0019,-0.0023,-0.0003,0.0003,-0.0008,0.0008,-0.0014,-0.0027,-0.0045,-0.0084,-0.0101,-0.0088,-0.0154,-0.0138,-0.0143,-0.0152,-0.0156,-0.0165,-0.0172,-0.0076,-0.0076,-0.0076,0,0,-0.0073,-0.0054,-0.0053,-0.0053,-0.0045,-0.0036,-0.0036,-0.0021,-0.0026,-0.0036,-0.0045,-0.0076,-0.0098,-0.013,-0.0149,-0.019,-0.0185,-0.0204,-0.0253,-0.0258,-0.0266,-0.0272,-0.0269,-0.0274,-0.0209,-0.021,-0.021,0,-0.0071,-0.0057,-0.005,-0.0061,-0.0057,-0.0046,-0.0044,-0.0056,-0.0047,-0.0051,-0.0057,-0.0107,-0.0128,-0.0185,-0.022,-0.0209,-0.0202,-0.0226,-0.0267,-0.0273,-0.0279,-0.0274,-0.0279,-0.0213,-0.0213,-0.0212,-0.0212,0,-0.0072,-0.0072,-0.0076,-0.0083,-0.0084,-0.0078,-0.0091,-0.0102,-0.0106,-0.0111,-0.0155,-0.0182,-0.0215,-0.0241,-0.0254,-0.0315,-0.0294,-0.0273,-0.025,-0.0291,-0.0283,-0.0288,-0.0218,-0.0217,-0.0216,-0.0215,0,0,-0.0034,-0.0063,-0.0066,-0.0065,-0.0086,-0.0076,-0.0119,-0.0125,-0.0144,-0.0176,-0.0196,-0.0279,-0.0293,-0.0315,-0.0337,-0.0362,-0.041,-0.0349,-0.0347,-0.0349,-0.0418,-0.0398,-0.04,-0.0394,-0.0395,-0.0396,-0.0396,0,-0.0026,-0.0029,-0.0055,-0.0064,-0.0061,-0.0086,-0.0113,-0.0135,-0.0165,-0.0194,-0.0245,-0.0284,-0.0322,-0.0348,-0.0387,-0.0396,-0.0425,-0.0411,-0.0374,-0.0374,-0.0354,-0.0406,-0.04,-0.0399,-0.04,-0.04,-0.0401,0,-0.0019,-0.0015,-0.001,-0.0027,-0.0028,-0.0042,-0.0065,-0.0097,-0.0162,-0.0187,-0.0255,-0.0295,-0.0372,-0.0381,-0.0442,-0.0431,-0.0445,-0.0449,-0.0448,-0.0413,-0.0363,-0.0348,-0.0408,-0.0408,-0.0407,-0.0407,-0.0406,0,0.003,0.0013,0.0033,0.0024,-0.0003,-0.0008,-0.0024,-0.0084,-0.0118,-0.0193,-0.0226,-0.0306,-0.0347,-0.0387,-0.0443,-0.0441,-0.0479,-0.046,-0.0454,-0.0451,-0.0438,-0.0431,-0.0501,-0.0501,-0.0501,-0.0501,-0.0501,0,0.0056,0.0057,0.0061,0.0065,0.0078,0.0043,0.0023,-0.0019,-0.0086,-0.0138,-0.0223,-0.0279,-0.0354,-0.04,-0.0435,-0.0465,-0.0473,-0.048,-0.046,-0.0464,-0.046,-0.0441,-0.0434,-0.0501,-0.0501,-0.0501,-0.0501,0,0.007,0.0079,0.0087,0.0091,0.0091,0.0094,0.0045,0.0009,-0.0045,-0.0121,-0.0153,-0.0257,-0.0322,-0.038,-0.043,-0.0448,-0.0471,-0.0475,-0.0478,-0.0454,-0.044,-0.0436,-0.0469,-0.0469,-0.0468,-0.0468,-0.0468,0,0.0073,0.0085,0.0105,0.0107,0.0101,0.0098,0.0074,0.0028,-0.0027,-0.0118,-0.0158,-0.0237,-0.031,-0.0354,-0.041,-0.0453,-0.046,-0.0464,-0.0475,-0.0465,-0.0442,-0.0439,-0.0436,-0.0467,-0.0467,-0.0467,-0.0467,0,0.0063,0.0073,0.008,0.0095,0.009,0.0074,0.0041,0.0018,-0.0058,-0.0093,-0.0173,-0.0233,-0.0292,-0.0351,-0.0383,-0.0417,-0.0458,-0.046,-0.0461,-0.0471,-0.0463,-0.0439,-0.0437,-0.0465,-0.0465,-0.0466,-0.0466,0,0.0042,0.0044,0.0057,0.0069,0.0062,0.004,0.0034,-0.002,-0.0059,-0.0144,-0.0163,-0.0237,-0.0283,-0.0333,-0.0366,-0.0395,-0.0405,-0.0407,-0.0411,-0.0413,-0.0401,-0.0383,-0.0359,0,0,0,0,0,0.0024,0.0023,0.0023,0.0032,0.0023,0.0031,-0.0009,-0.0025,-0.0065,-0.0118,-0.014,-0.02,-0.0268,-0.0303,-0.0328,-0.0361,-0.041,-0.039,-0.0414,-0.0457,-0.0459,-0.0455,0,0,0,0,0,0,0.001,0.0005,0.0015,-0.0001,0.0005,-0.0015,-0.0024,-0.005,-0.008,-0.0116,-0.015,-0.0181,-0.0245,-0.0239,-0.0316,-0.0329,-0.0344,-0.0426,-0.0426,-0.0457,-0.0458,-0.0459,-0.0455,0,0,0,0,0]}]]